EN

Hourly Weather Lahir

Today, 26 July, Monday

Time Temperature Precipitation Wind Pressure Humidity
00:00 +15°C° 0 mm 2 mps 623 mmHg 91%
01:00 +15°C° 0 mm 2 mps 622 mmHg 89%
02:00 +15°C° 0 mm 1 mps 622 mmHg 88%
03:00 +15°C° 0 mm 2 mps 622 mmHg 87%
04:00 +15°C° 0 mm 1 mps 623 mmHg 86%
05:00 +16°C° 0 mm 1 mps 623 mmHg 85%
06:00 +18°C° 0 mm 1 mps 623 mmHg 84%
07:00 +18°C° 0 mm 2 mps 624 mmHg 79%
08:00 +20°C° 0 mm 2 mps 624 mmHg 74%
09:00 +21°C° 0 mm 2 mps 624 mmHg 68%
10:00 +23°C° 0.1 mm 2 mps 624 mmHg 67%
11:00 +23°C° 0.1 mm 2 mps 624 mmHg 66%
12:00 +24°C° 0.1 mm 2 mps 625 mmHg 65%
13:00 +24°C° 0.2 mm 2 mps 624 mmHg 64%
14:00 +24°C° 0.2 mm 2 mps 624 mmHg 64%
15:00 +24°C° 0 mm 2 mps 624 mmHg 63%
16:00 +23°C° 0.1 mm 2 mps 624 mmHg 66%
17:00 +21°C° 0.1 mm 2 mps 624 mmHg 69%
18:00 +21°C° 0.1 mm 1 mps 624 mmHg 72%
19:00 +20°C° 0.1 mm 1 mps 623 mmHg 77%
20:00 +18°C° 0.1 mm 1 mps 623 mmHg 82%
21:00 +15°C° 0.1 mm 1 mps 623 mmHg 87%
22:00 +15°C° 0.1 mm 1 mps 622 mmHg 87%
23:00 +15°C° 0.1 mm 1 mps 622 mmHg 87%

Tomorrow, 27 July, Tuesday

Time Temperature Precipitation Wind Pressure Humidity
00:00 +15°C° 0.1 mm 1 mps 622 mmHg 87%
01:00 +14°C° 0.1 mm 1 mps 622 mmHg 87%
02:00 +14°C° 0.1 mm 1 mps 622 mmHg 87%
03:00 +14°C° 0.1 mm 1 mps 622 mmHg 87%
04:00 +15°C° 0 mm 1 mps 622 mmHg 85%
05:00 +16°C° 0 mm 1 mps 622 mmHg 83%
06:00 +16°C° 0 mm 1 mps 622 mmHg 81%
07:00 +19°C° 0.1 mm 1 mps 622 mmHg 77%
08:00 +19°C° 0.1 mm 2 mps 622 mmHg 72%
09:00 +20°C° 0.1 mm 2 mps 622 mmHg 67%
10:00 +20°C° 0.4 mm 2 mps 622 mmHg 67%
11:00 +21°C° 0.4 mm 2 mps 622 mmHg 66%
12:00 +21°C° 0.4 mm 2 mps 622 mmHg 66%
13:00 +20°C° 0.4 mm 2 mps 622 mmHg 67%
14:00 +20°C° 0.4 mm 2 mps 622 mmHg 68%
15:00 +20°C° 0.4 mm 2 mps 621 mmHg 69%
16:00 +19°C° 0.2 mm 2 mps 621 mmHg 73%
17:00 +17°C° 0.2 mm 2 mps 621 mmHg 77%
18:00 +16°C° 0.2 mm 1 mps 621 mmHg 81%
19:00 +16°C° 0.2 mm 1 mps 621 mmHg 83%
20:00 +15°C° 0.2 mm 1 mps 621 mmHg 86%
21:00 +14°C° 0.2 mm 1 mps 621 mmHg 89%
22:00 +14°C° 0.5 mm 1 mps 621 mmHg 91%
23:00 +14°C° 0.5 mm 1 mps 621 mmHg 93%

Day after tomorrow, 28 July, Wednesday

Time Temperature Precipitation Wind Pressure Humidity
00:00 +13°C° 0.5 mm 2 mps 621 mmHg 96%
01:00 +13°C° 4 mm 1 mps 621 mmHg 95%
02:00 +13°C° 4 mm 1 mps 620 mmHg 94%
03:00 +13°C° 4 mm 1 mps 620 mmHg 94%
04:00 +13°C° 0.3 mm 1 mps 620 mmHg 94%
05:00 +13°C° 0.3 mm 1 mps 620 mmHg 94%
06:00 +13°C° 0.3 mm 1 mps 621 mmHg 95%
07:00 +13°C° 0.2 mm 1 mps 621 mmHg 95%
08:00 +13°C° 0.2 mm 1 mps 621 mmHg 95%
09:00 +13°C° 0.2 mm 2 mps 621 mmHg 95%
10:00 +13°C° 0.5 mm 2 mps 621 mmHg 96%
11:00 +13°C° 0.5 mm 2 mps 621 mmHg 96%
12:00 +12°C° 0.5 mm 2 mps 621 mmHg 96%
13:00 +12°C° 0.5 mm 1 mps 621 mmHg 96%
14:00 +12°C° 0.5 mm 1 mps 621 mmHg 95%
15:00 +12°C° 0.5 mm 1 mps 621 mmHg 95%
16:00 +12°C° 0.1 mm 1 mps 621 mmHg 95%
17:00 +12°C° 0.1 mm 1 mps 621 mmHg 94%
18:00 +12°C° 0.1 mm 1 mps 621 mmHg 94%
19:00 +11°C° 0 mm 0 mps 621 mmHg 94%
20:00 +11°C° 0 mm 0 mps 621 mmHg 94%
21:00 +11°C° 0 mm 0 mps 621 mmHg 94%
22:00 +11°C° 0.1 mm 0 mps 621 mmHg 94%
23:00 +11°C° 0.1 mm 0 mps 621 mmHg 94%

29 July, Thursday

Time Temperature Precipitation Wind Pressure Humidity
00:00 +11°C° 0.1 mm 0 mps 621 mmHg 94%
01:00 +11°C° 0.1 mm 0 mps 621 mmHg 93%
02:00 +11°C° 0.1 mm 0 mps 621 mmHg 93%
03:00 +11°C° 0.1 mm 0 mps 620 mmHg 92%
04:00 +11°C° 0 mm 0 mps 621 mmHg 90%
05:00 +13°C° 0 mm 1 mps 621 mmHg 89%
06:00 +13°C° 0 mm 1 mps 621 mmHg 87%
07:00 +14°C° 0 mm 1 mps 621 mmHg 83%
08:00 +15°C° 0 mm 1 mps 621 mmHg 79%
09:00 +16°C° 0 mm 1 mps 622 mmHg 75%
10:00 +16°C° 0.2 mm 2 mps 622 mmHg 72%
11:00 +17°C° 0.2 mm 2 mps 622 mmHg 70%
12:00 +18°C° 0.2 mm 2 mps 622 mmHg 68%
13:00 +18°C° 0.1 mm 2 mps 622 mmHg 68%
14:00 +18°C° 0.1 mm 2 mps 622 mmHg 69%
15:00 +19°C° 0.1 mm 1 mps 622 mmHg 69%
16:00 +19°C° 0.1 mm 1 mps 622 mmHg 72%
17:00 +19°C° 0.1 mm 1 mps 621 mmHg 74%
18:00 +18°C° 0.1 mm 1 mps 621 mmHg 77%
19:00 +16°C° 0 mm 1 mps 621 mmHg 79%
20:00 +15°C° 0 mm 1 mps 621 mmHg 81%
21:00 +14°C° 0 mm 1 mps 621 mmHg 84%
22:00 +14°C° 0 mm 1 mps 621 mmHg 82%
23:00 +14°C° 0 mm 1 mps 620 mmHg 81%

30 July, Friday

Time Temperature Precipitation Wind Pressure Humidity
00:00 +14°C° 0 mm 1 mps 620 mmHg 80%
01:00 +14°C° 0 mm 2 mps 620 mmHg 81%
02:00 +13°C° 0 mm 2 mps 619 mmHg 81%
03:00 +12°C° 0 mm 2 mps 619 mmHg 82%
04:00 +13°C° 0 mm 2 mps 619 mmHg 80%
05:00 +14°C° 0 mm 1 mps 620 mmHg 78%
06:00 +15°C° 0 mm 1 mps 620 mmHg 75%
07:00 +16°C° 0 mm 1 mps 621 mmHg 71%
08:00 +19°C° 0 mm 1 mps 621 mmHg 66%
09:00 +19°C° 0 mm 2 mps 621 mmHg 61%
10:00 +20°C° 0.2 mm 2 mps 621 mmHg 61%
11:00 +21°C° 0.2 mm 2 mps 621 mmHg 60%
12:00 +21°C° 0.2 mm 2 mps 621 mmHg 59%
13:00 +21°C° 0.6 mm 2 mps 621 mmHg 58%
14:00 +21°C° 0.6 mm 2 mps 621 mmHg 58%
15:00 +21°C° 0.6 mm 2 mps 621 mmHg 57%
16:00 +20°C° 0.3 mm 2 mps 621 mmHg 61%
17:00 +21°C° 0.3 mm 1 mps 621 mmHg 65%
18:00 +20°C° 0.3 mm 1 mps 621 mmHg 69%
19:00 +18°C° 0.2 mm 1 mps 621 mmHg 73%
20:00 +16°C° 0.2 mm 2 mps 620 mmHg 76%
21:00 +15°C° 0.2 mm 2 mps 620 mmHg 80%
22:00 +14°C° 0.1 mm 2 mps 620 mmHg 80%
23:00 +14°C° 0.1 mm 2 mps 620 mmHg 80%

31 July, Saturday

Time Temperature Precipitation Wind Pressure Humidity
00:00 +14°C° 0.1 mm 2 mps 620 mmHg 80%
01:00 +14°C° 0 mm 2 mps 619 mmHg 79%
02:00 +14°C° 0 mm 2 mps 619 mmHg 78%
03:00 +13°C° 0 mm 2 mps 619 mmHg 77%
04:00 +14°C° 0 mm 2 mps 619 mmHg 76%
05:00 +15°C° 0 mm 2 mps 620 mmHg 75%
06:00 +15°C° 0 mm 2 mps 620 mmHg 73%
07:00 +18°C° 0 mm 1 mps 620 mmHg 67%
08:00 +20°C° 0 mm 1 mps 621 mmHg 61%
09:00 +22°C° 0 mm 1 mps 621 mmHg 55%
10:00 +23°C° 0.1 mm 2 mps 621 mmHg 54%
11:00 +23°C° 0.1 mm 2 mps 621 mmHg 53%
12:00 +24°C° 0.1 mm 2 mps 621 mmHg 52%
13:00 +24°C° 0.4 mm 2 mps 621 mmHg 54%
14:00 +23°C° 0.4 mm 2 mps 621 mmHg 56%
15:00 +23°C° 0.4 mm 2 mps 621 mmHg 58%
16:00 +21°C° 0.4 mm 2 mps 621 mmHg 63%
17:00 +20°C° 0.4 mm 2 mps 621 mmHg 67%
18:00 +21°C° 0.4 mm 1 mps 621 mmHg 72%
19:00 +19°C° 0.5 mm 1 mps 620 mmHg 76%
20:00 +17°C° 0.5 mm 2 mps 620 mmHg 79%
21:00 +15°C° 0.5 mm 2 mps 620 mmHg 83%
22:00 +15°C° 0.4 mm 2 mps 620 mmHg 83%
23:00 +15°C° 0.4 mm 2 mps 620 mmHg 82%
Show more